Regional Weather Roundup
Issued by NWS

Home | Current Version | Previous Version | Graphics & Text | Print | Product List | Glossary On
Versions: 1 2 3 4 5 6 7 8 9 10 11 12 13 14 15 16 17 18 19 20 21 22 23 24 25 26 27 28 29 30 31 32 33 34 35 36 37 38 39 40 41 42 43 44 45 46 47 48 49 50
068
ASUS43 KDMX 210501
RWRIA

WEATHER ROUNDUP FOR IOWA
NATIONAL WEATHER SERVICE DES MOINES IA
1100 PM CST MON FEB 20 2017

NOTE: "FAIR" INDICATES FEW OR NO CLOUDS BELOW 12,000 FEET WITH NO
SIGNIFICANT WEATHER AND/OR OBSTRUCTIONS TO VISIBILITY.

* - THESE STATIONS ARE NOT NWS STATIONS...THUS NOT UNDER NWS
QUALITY CONTROL.  THEY ALSO DO NOT REPORT WEATHER SUCH
AS PRECIPITATION OR FOG.

IAZ001>003-012>014-020>022-031>034-043>046-210600-
   NORTHWEST IOWA

CITY           SKY/WX    TMP DP  RH WIND       PRES   REMARKS
CARROLL *      CLEAR     41  41 100 W8        29.91F
CHEROKEE *     CLEAR     37  37 100 CALM      29.92R
DENISON *      CLEAR     41  39  93 CALM      29.91S
LE MARS *      CLEAR     36  36 100 CALM      29.94R
SHELDON *      CLEAR     36  36 100 CALM      29.90R
SIOUX CITY     CLEAR     40  38  93 CALM      29.94R
SPENCER        CLEAR     36  35  96 W12       29.90R WCI  28
STORM LAKE *   CLEAR     41  39  93 W6        29.90S
$$

IAZ055>058-069>071-079>083-090>094-210600-
   SOUTHWEST IOWA

CITY           SKY/WX    TMP DP  RH WIND       PRES   REMARKS
ATLANTIC *     CLEAR     45  43  93 CALM      29.93S
CLARINDA *     CLOUDY    50  48  93 CALM      29.95S
COUNCIL BLFS * CLEAR     48  45  87 NW5       29.94S
CRESTON *      PTCLDY    50  46  87 NW9       29.93S
HARLAN  *      CLEAR     39  37  93 CALM      29.97S
LAMONI         PTCLDY    56  52  86 N10       29.92R
RED OAK *      CLEAR     46  43  87 NW8       29.93F
SHENANDOAH *   CLEAR     50  45  81 NW12      29.94S
$$

IAZ047>049-059>061-072>074-084-210600-
   CENTRAL IOWA

CITY           SKY/WX    TMP DP  RH WIND       PRES   REMARKS
AMES           CLOUDY    50  47  89 NW9       29.91R
ANKENY *       CLOUDY    52  46  82 NW8       29.92R
BOONE *        CLOUDY    48  46  93 W13       29.90R
CHARITON *     CLOUDY    57  52  82 NW16      29.92R
DES MOINES     CLOUDY    54  46  74 NW7       29.91R
GRINNELL*      CLOUDY    53  49  86 NW8       29.91R
KNOXVILLE *    MOCLDY    55  46  71 N13G21    29.90R
MARSHALLTOWN   CLOUDY    49  47  93 NW10      29.89R
NEWTON *       CLOUDY    52  46  82 NW10      29.90R
PELLA *        CLOUDY    54  48  78 NW12      29.92R
PERRY *          N/A     48  45  87 NW8       29.91R
$$

IAZ004>006-015-016-023>025-035-036-210600-
   NORTH CENTRAL IOWA

CITY           SKY/WX    TMP DP  RH WIND       PRES   REMARKS
ALGONA *       CLEAR     41  41 100 SW5       29.89S
CLARION *      PTCLDY    43  43 100 W10       29.89F
ESTHERVILLE    CLEAR     39  39 100 W9        29.88R WCI  33
FORT DODGE *   CLEAR     41  37  87 CALM      29.90F
MASON CITY     CLOUDY    42  40  92 W10       29.88R
FOREST CITY *    N/A     39  39 100 W5        29.88S
IOWA FALLS *     N/A     48  45  87 NW12      29.90S
$$

IAZ007>011-017>019-026>030-037>042-050>054-066-210600-
   NORTHEAST IOWA

CITY           SKY/WX    TMP DP  RH WIND       PRES   REMARKS
CEDAR RAPIDS   LGT RAIN  53  53 100 SW5       29.86F
CHARLES CITY * CLOUDY    48  48 100 W15       29.86S
CLINTON *      LGT RAIN  56  55  97 SW5       29.89
DECORAH *      CLOUDY    52  48  87 W14G22    29.84R
DUBUQUE        LGT RAIN  52  52 100 S8        29.87F VSB 1/2
MONTICELLO *   MOCLDY    54  54 100 S8        29.86F FOG
OELWEIN *      CLOUDY    54  50  87 NW17G24   29.87R
WATERLOO       CLOUDY    51  46  83 W9        29.88R
$$

IAZ064-065-067-068-078-210600-
   EAST CENTRAL IOWA

CITY           SKY/WX    TMP DP  RH WIND       PRES   REMARKS
DAVENPORT        N/A     57  55  93 MISG      29.89F
IOWA CITY      CLOUDY    55  55 100 CALM      29.89F FOG
MUSCATINE *    LGT RAIN  57  55  94 CALM      29.89S
QUAD CITIES    LGT RAIN  60  55  83 CALM      29.87F
$$

IAZ062-063-075>077-085>089-095>099-210600-
   SOUTHEAST IOWA

CITY           SKY/WX    TMP DP  RH WIND       PRES   REMARKS
BURLINGTON     LGT RAIN  58  58 100 S5        29.90R FOG
FAIRFIELD *    CLOUDY    57  57 100 S6        29.90R
KEOKUK *         N/A     61  59  94 SW5       29.90S
OTTUMWA        LGT RAIN  60  57  89 W9        29.89R
WASHINGTON *   CLOUDY    57  55  94 S7        29.90S FOG
$$

ABBREVIATIONS USED IN REMARKS
   TC - TEMPERATURES IN CELSIUS
  WCI - WIND CHILL INDEX
   HX - HEAT INDEX
  VSB - VISIBILITY
$$





USA.gov is the U.S. government's official web portal to all federal, state and local government web resources and services.